CMP44M MDSD-TJSJ

Flight info

Callsign CMP44M
Flight time 0h 49m
Altitude 27000
Route MELLA2J MELLA G633 MAZ RTE12 JOSHE JOSHE3
Aircraft B738/M-SDE2E3FGHIRWXY/LB1

Departure

Time 2026-05-04 20:59
Airport Las Américas International Airport (MDSD)

Arrival

Time 2026-05-04 21:48
Airport Luis Munoz Marin International Airport (TJSJ)
Time Latitude Longitude Altitude Speed Heading
2026-05-04 20:26 18.43166 -69.67620 66 ft 0 kts 251°
2026-05-04 20:40 18.43173 -69.67597 66 ft 0 kts 251°
2026-05-04 20:45 18.43176 -69.67589 66 ft 2 kts 251°
2026-05-04 20:45 18.43183 -69.67573 66 ft 1 kts 240°
2026-05-04 20:48 18.43178 -69.67584 66 ft 0 kts 252°
2026-05-04 20:56 18.43180 -69.67577 66 ft 2 kts 252°
2026-05-04 20:56 18.43184 -69.67560 66 ft 3 kts 264°
2026-05-04 20:56 18.43183 -69.67539 66 ft 3 kts 282°
2026-05-04 20:57 18.43178 -69.67522 66 ft 0 kts 296°
2026-05-04 20:57 18.43190 -69.67533 66 ft 7 kts 328°
2026-05-04 20:57 18.43293 -69.67540 66 ft 23 kts 358°
2026-05-04 20:58 18.43498 -69.67571 66 ft 35 kts 339°
2026-05-04 20:58 18.43719 -69.67646 66 ft 29 kts 340°
2026-05-04 20:58 18.43855 -69.67703 66 ft 18 kts 342°
2026-05-04 20:58 18.43970 -69.67749 66 ft 18 kts 339°
2026-05-04 20:59 18.44089 -69.67794 66 ft 13 kts 354°
2026-05-04 20:59 18.44957 -69.67107 298 ft 245 kts 38°
2026-05-04 20:59 18.46136 -69.65985 1707 ft 213 kts 45°
2026-05-04 20:59 18.46838 -69.64655 2244 ft 218 kts 76°
2026-05-04 21:00 18.46641 -69.62981 2000 ft 250 kts 112°
2026-05-04 21:00 18.45495 -69.61486 1735 ft 274 kts 142°
2026-05-04 21:00 18.43959 -69.60417 2557 ft 249 kts 148°
2026-05-04 21:00 18.42568 -69.59515 3602 ft 221 kts 149°
2026-05-04 21:01 18.41297 -69.58727 4456 ft 204 kts 150°
2026-05-04 21:01 18.40062 -69.57963 4883 ft 214 kts 147°
2026-05-04 21:01 18.38960 -69.56841 4993 ft 233 kts 128°
2026-05-04 21:01 18.38084 -69.55327 4958 ft 251 kts 119°
2026-05-04 21:02 18.37191 -69.53682 4980 ft 267 kts 119°
2026-05-04 21:02 18.36257 -69.51952 4989 ft 276 kts 119°
2026-05-04 21:02 18.35298 -69.50173 4984 ft 279 kts 119°
2026-05-04 21:02 18.34337 -69.48395 4979 ft 279 kts 119°
2026-05-04 21:03 18.33380 -69.46624 4975 ft 279 kts 119°
2026-05-04 21:03 18.32423 -69.44854 4974 ft 279 kts 119°
2026-05-04 21:03 18.31486 -69.43063 5075 ft 283 kts 114°
2026-05-04 21:03 18.30862 -69.41087 5857 ft 285 kts 102°
2026-05-04 21:04 18.30452 -69.39063 6696 ft 284 kts 110°
2026-05-04 21:04 18.29444 -69.37388 7711 ft 267 kts 139°
2026-05-04 21:04 18.27885 -69.36437 8556 ft 252 kts 168°
2026-05-04 21:04 18.26186 -69.36397 9134 ft 244 kts 198°
2026-05-04 21:05 18.24735 -69.37259 9720 ft 237 kts 229°
2026-05-04 21:05 18.23958 -69.38750 10298 ft 234 kts 258°
2026-05-04 21:05 18.23930 -69.40462 10995 ft 235 kts 275°
2026-05-04 21:05 18.24161 -69.42179 11693 ft 239 kts 278°
2026-05-04 21:06 18.24465 -69.43911 12388 ft 242 kts 280°
2026-05-04 21:06 18.24789 -69.45659 13099 ft 245 kts 280°
2026-05-04 21:06 18.25115 -69.47426 13809 ft 247 kts 280°
2026-05-04 21:06 18.25592 -69.49154 14471 ft 253 kts 297°
2026-05-04 21:07 18.26853 -69.50417 15144 ft 264 kts 328°
2026-05-04 21:07 18.28686 -69.50799 15807 ft 279 kts
2026-05-04 21:07 18.30544 -69.50098 16449 ft 294 kts 31°
2026-05-04 21:07 18.31558 -69.49132 16793 ft 305 kts 46°
2026-05-04 21:08 18.32909 -69.46352 17126 ft 336 kts 76°
2026-05-04 21:08 18.33104 -69.43840 17364 ft 355 kts 94°
2026-05-04 21:08 18.32841 -69.41216 17596 ft 373 kts 95°
2026-05-04 21:08 18.32605 -69.38421 17826 ft 391 kts 96°
2026-05-04 21:09 18.32355 -69.35520 18199 ft 402 kts 95°
2026-05-04 21:09 18.32099 -69.32575 18855 ft 405 kts 95°
2026-05-04 21:09 18.31839 -69.29608 19479 ft 409 kts 95°
2026-05-04 21:09 18.31580 -69.26665 20072 ft 412 kts 96°
2026-05-04 21:10 18.31311 -69.23626 20672 ft 416 kts 96°
2026-05-04 21:10 18.31040 -69.20584 21246 ft 419 kts 96°
2026-05-04 21:10 18.30767 -69.17515 21801 ft 423 kts 96°
2026-05-04 21:10 18.30490 -69.14428 22449 ft 423 kts 96°
2026-05-04 21:11 18.30215 -69.11356 23151 ft 421 kts 96°
2026-05-04 21:11 18.29940 -69.08290 23826 ft 420 kts 95°
2026-05-04 21:11 18.29674 -69.05233 24481 ft 419 kts 95°
2026-05-04 21:11 18.29406 -69.02183 25119 ft 418 kts 96°
2026-05-04 21:12 18.29136 -68.99137 25745 ft 417 kts 96°
2026-05-04 21:12 18.28869 -68.96134 26344 ft 416 kts 96°
2026-05-04 21:12 18.28594 -68.93053 26838 ft 418 kts 96°
2026-05-04 21:12 18.28325 -68.90053 26980 ft 416 kts 96°
2026-05-04 21:13 18.28056 -68.87060 26983 ft 405 kts 96°
2026-05-04 21:13 18.27793 -68.84139 26986 ft 397 kts 96°
2026-05-04 21:13 18.27533 -68.81269 26990 ft 391 kts 96°
2026-05-04 21:13 18.27276 -68.78434 26993 ft 389 kts 96°
2026-05-04 21:14 18.27019 -68.75597 26996 ft 389 kts 96°
2026-05-04 21:14 18.26761 -68.72761 26997 ft 389 kts 96°
2026-05-04 21:14 18.26503 -68.69923 26997 ft 389 kts 96°
2026-05-04 21:14 18.26243 -68.67083 26997 ft 389 kts 96°
2026-05-04 21:15 18.25984 -68.64245 26997 ft 389 kts 96°
2026-05-04 21:15 18.25726 -68.61431 26997 ft 389 kts 96°
2026-05-04 21:15 18.25467 -68.58601 26997 ft 389 kts 96°
2026-05-04 21:15 18.25206 -68.55764 26997 ft 389 kts 96°
2026-05-04 21:16 18.24945 -68.52929 26997 ft 389 kts 96°
2026-05-04 21:16 18.24683 -68.50092 26997 ft 389 kts 96°
2026-05-04 21:16 18.24422 -68.47261 26997 ft 389 kts 96°
2026-05-04 21:16 18.24245 -68.45342 26996 ft 389 kts 96°
2026-05-04 21:17 18.23982 -68.42507 26997 ft 389 kts 96°
2026-05-04 21:17 18.23723 -68.39711 26998 ft 389 kts 96°
2026-05-04 21:17 18.23460 -68.36881 26997 ft 389 kts 96°
2026-05-04 21:17 18.23194 -68.34014 26999 ft 396 kts 96°
2026-05-04 21:18 18.22929 -68.31101 27000 ft 404 kts 96°
2026-05-04 21:18 18.22656 -68.28137 27001 ft 413 kts 96°
2026-05-04 21:18 18.22373 -68.25093 27001 ft 421 kts 96°
2026-05-04 21:18 18.22083 -68.22006 26999 ft 426 kts 96°
2026-05-04 21:19 18.21791 -68.18901 26997 ft 426 kts 96°
2026-05-04 21:19 18.21499 -68.15804 26997 ft 425 kts 96°
2026-05-04 21:19 18.21206 -68.12709 26997 ft 425 kts 96°
2026-05-04 21:19 18.20912 -68.09610 26997 ft 425 kts 96°
2026-05-04 21:20 18.20617 -68.06509 26998 ft 425 kts 96°
2026-05-04 21:20 18.20324 -68.03415 26997 ft 425 kts 96°
2026-05-04 21:20 18.20099 -68.00307 26991 ft 425 kts 91°
2026-05-04 21:20 18.20152 -67.97209 26669 ft 422 kts 86°
2026-05-04 21:21 18.20341 -67.94270 26148 ft 423 kts 85°
2026-05-04 21:21 18.20566 -67.91197 25679 ft 421 kts 85°
2026-05-04 21:21 18.20786 -67.88120 25130 ft 422 kts 85°
2026-05-04 21:21 18.21001 -67.85046 24707 ft 419 kts 85°
2026-05-04 21:22 18.21220 -67.81996 24280 ft 416 kts 85°
2026-05-04 21:22 18.21431 -67.79019 23853 ft 413 kts 85°
2026-05-04 21:22 18.21640 -67.75994 23422 ft 411 kts 85°
2026-05-04 21:22 18.21843 -67.73006 22993 ft 408 kts 85°
2026-05-04 21:23 18.22044 -67.70035 22568 ft 406 kts 85°
2026-05-04 21:23 18.22241 -67.67081 22145 ft 403 kts 85°
2026-05-04 21:23 18.22436 -67.64146 21724 ft 401 kts 85°
2026-05-04 21:23 18.22629 -67.61234 21398 ft 395 kts 85°
2026-05-04 21:24 18.22818 -67.58375 21139 ft 389 kts 85°
2026-05-04 21:24 18.23003 -67.55560 20887 ft 382 kts 85°
2026-05-04 21:24 18.23186 -67.52794 20636 ft 376 kts 85°
2026-05-04 21:24 18.23369 -67.50109 20427 ft 370 kts 84°
2026-05-04 21:25 18.23577 -67.47448 20132 ft 366 kts 86°
2026-05-04 21:25 18.23747 -67.44775 19783 ft 364 kts 86°
2026-05-04 21:25 18.23917 -67.42085 19423 ft 363 kts 86°
2026-05-04 21:25 18.24084 -67.39475 19070 ft 362 kts 86°
2026-05-04 21:26 18.24252 -67.36839 18710 ft 360 kts 86°
2026-05-04 21:26 18.24421 -67.34209 18352 ft 359 kts 86°
2026-05-04 21:26 18.24589 -67.31591 17996 ft 358 kts 86°
2026-05-04 21:26 18.24755 -67.29004 17642 ft 357 kts 86°
2026-05-04 21:27 18.24922 -67.26398 17286 ft 356 kts 86°
2026-05-04 21:27 18.25088 -67.23807 16932 ft 354 kts 86°
2026-05-04 21:27 18.25253 -67.21229 16580 ft 353 kts 86°
2026-05-04 21:27 18.25419 -67.18646 16227 ft 352 kts 86°
2026-05-04 21:28 18.25583 -67.16089 15878 ft 350 kts 86°
2026-05-04 21:28 18.25694 -67.13530 15510 ft 350 kts 89°
2026-05-04 21:28 18.25679 -67.10973 15161 ft 348 kts 91°
2026-05-04 21:28 18.25607 -67.08428 14815 ft 347 kts 92°
2026-05-04 21:29 18.25529 -67.05925 14474 ft 346 kts 92°
2026-05-04 21:29 18.25457 -67.03399 14130 ft 344 kts 92°
2026-05-04 21:29 18.25389 -67.00881 13788 ft 343 kts 91°
2026-05-04 21:29 18.25325 -66.98374 13447 ft 342 kts 91°
2026-05-04 21:30 18.25263 -66.95882 13109 ft 340 kts 91°
2026-05-04 21:30 18.25203 -66.93393 12772 ft 339 kts 91°
2026-05-04 21:30 18.25145 -66.90916 12437 ft 337 kts 91°
2026-05-04 21:30 18.25089 -66.88486 12109 ft 336 kts 91°
2026-05-04 21:31 18.24981 -66.83593 11455 ft 333 kts 91°
2026-05-04 21:31 18.24936 -66.81157 11130 ft 331 kts 91°
2026-05-04 21:31 18.24889 -66.78749 10801 ft 325 kts 91°
2026-05-04 21:32 18.24841 -66.76411 10482 ft 318 kts 91°
2026-05-04 21:32 18.24791 -66.74109 10231 ft 309 kts 91°
2026-05-04 21:32 18.24742 -66.71888 10028 ft 299 kts 91°
2026-05-04 21:32 18.24303 -66.69839 9823 ft 285 kts 120°
2026-05-04 21:33 18.23007 -66.68413 9856 ft 263 kts 154°
2026-05-04 21:33 18.21305 -66.67995 9889 ft 245 kts 189°
2026-05-04 21:33 18.19789 -66.68650 9930 ft 235 kts 224°
2026-05-04 21:33 18.18468 -66.69689 9951 ft 247 kts 210°
2026-05-04 21:34 18.16757 -66.70067 9877 ft 256 kts 184°
2026-05-04 21:34 18.15025 -66.69608 9732 ft 261 kts 158°
2026-05-04 21:34 18.13618 -66.68398 9397 ft 266 kts 131°
2026-05-04 21:34 18.12810 -66.66643 8976 ft 271 kts 104°
2026-05-04 21:35 18.12783 -66.64676 8641 ft 268 kts 77°
2026-05-04 21:35 18.13462 -66.62947 8552 ft 252 kts 57°
2026-05-04 21:35 18.14503 -66.61509 8452 ft 237 kts 43°
2026-05-04 21:35 18.15780 -66.60576 8335 ft 219 kts 22°
2026-05-04 21:36 18.17126 -66.59955 8242 ft 204 kts 17°
2026-05-04 21:36 18.18418 -66.59425 8037 ft 197 kts 15°
2026-05-04 21:36 18.19664 -66.58795 7649 ft 204 kts 27°
2026-05-04 21:36 18.20706 -66.57765 7370 ft 209 kts 44°
2026-05-04 21:37 18.21576 -66.56479 7191 ft 220 kts 55°
2026-05-04 21:37 18.22303 -66.55068 6987 ft 217 kts 61°
2026-05-04 21:37 18.22917 -66.53638 6941 ft 210 kts 65°
2026-05-04 21:37 18.23452 -66.52229 6930 ft 205 kts 66°
2026-05-04 21:38 18.23959 -66.50855 6947 ft 205 kts 66°
2026-05-04 21:38 18.24576 -66.49496 6864 ft 207 kts 58°
2026-05-04 21:38 18.25365 -66.48191 6709 ft 209 kts 53°
2026-05-04 21:38 18.26176 -66.46949 6531 ft 207 kts 52°
2026-05-04 21:39 18.26995 -66.45692 6352 ft 204 kts 52°
2026-05-04 21:39 18.27788 -66.44467 6178 ft 201 kts 52°
2026-05-04 21:39 18.28554 -66.43278 6011 ft 200 kts 52°
2026-05-04 21:39 18.29383 -66.41986 5866 ft 224 kts 52°
2026-05-04 21:40 18.30284 -66.40574 5669 ft 239 kts 53°
2026-05-04 21:40 18.31225 -66.39098 5448 ft 246 kts 53°
2026-05-04 21:40 18.32186 -66.37586 5223 ft 248 kts 53°
2026-05-04 21:40 18.33138 -66.36087 5003 ft 245 kts 54°
2026-05-04 21:41 18.34077 -66.34607 4789 ft 241 kts 54°
2026-05-04 21:41 18.34999 -66.33153 4581 ft 238 kts 54°
2026-05-04 21:41 18.35913 -66.31715 4378 ft 234 kts 54°
2026-05-04 21:41 18.36816 -66.30297 4177 ft 231 kts 54°
2026-05-04 21:42 18.37697 -66.28912 4004 ft 223 kts 55°
2026-05-04 21:42 18.38531 -66.27600 3815 ft 209 kts 55°
2026-05-04 21:42 18.39315 -66.26366 3619 ft 198 kts 56°
2026-05-04 21:42 18.40069 -66.25180 3445 ft 191 kts 56°
2026-05-04 21:43 18.40800 -66.24029 3284 ft 186 kts 56°
2026-05-04 21:43 18.41508 -66.22914 3124 ft 181 kts 56°
2026-05-04 21:43 18.42184 -66.21848 2976 ft 177 kts 56°
2026-05-04 21:43 18.42822 -66.20736 2807 ft 176 kts 66°
2026-05-04 21:44 18.43103 -66.19494 2674 ft 174 kts 82°
2026-05-04 21:44 18.43237 -66.18249 2543 ft 166 kts 84°
2026-05-04 21:44 18.43325 -66.17064 2392 ft 160 kts 86°
2026-05-04 21:44 18.43362 -66.15908 2243 ft 156 kts 89°
2026-05-04 21:45 18.43375 -66.14771 2155 ft 155 kts 89°
2026-05-04 21:45 18.43379 -66.13639 2155 ft 155 kts 90°
2026-05-04 21:45 18.43380 -66.12496 2057 ft 157 kts 90°
2026-05-04 21:45 18.43378 -66.11349 1851 ft 156 kts 90°
2026-05-04 21:46 18.43376 -66.10213 1642 ft 154 kts 90°
2026-05-04 21:46 18.43374 -66.09084 1436 ft 154 kts 90°
2026-05-04 21:46 18.43371 -66.07973 1235 ft 153 kts 90°
2026-05-04 21:46 18.43368 -66.06851 1033 ft 153 kts 90°
2026-05-04 21:47 18.43366 -66.05734 851 ft 152 kts 90°
2026-05-04 21:47 18.43363 -66.04623 640 ft 152 kts 90°
2026-05-04 21:47 18.43360 -66.03516 418 ft 151 kts 90°
2026-05-04 21:47 18.43357 -66.02438 258 ft 144 kts 90°
2026-05-04 21:48 18.43357 -66.01395 68 ft 140 kts 90°
2026-05-04 21:48 18.43352 -66.00421 17 ft 117 kts 90°
2026-05-04 21:48 18.43352 -65.99886 17 ft 19 kts 89°
2026-05-04 21:48 18.43364 -65.99785 17 ft 8 kts 351°
2026-05-04 21:49 18.43212 -65.99265 17 ft 60 kts 288°
2026-05-04 21:49 18.43403 -65.99866 17 ft 0 kts
2026-05-04 21:49 18.43421 -65.99873 17 ft 8 kts 330°
2026-05-04 21:49 18.43509 -65.99921 17 ft 20 kts 350°
2026-05-04 21:50 18.43562 -66.00027 17 ft 22 kts 267°
2026-05-04 21:50 18.43562 -66.00117 17 ft 8 kts 290°
2026-05-04 21:50 18.43573 -66.00170 17 ft 8 kts 310°
2026-05-04 21:50 18.43617 -66.00187 17 ft 0 kts